Location: Unspecified
(38.9820°N, 0.0000°E)
Time: 08:01:33
(UTC+00:00)

Envisat - Visible Passes

Search period start: 16 October 2019 00:00
Search period end: 26 October 2019 00:00
Orbit: 764 x 766 km, 98.1° (Epoch: 15 October)

Date Brightness Start Highest point End Pass type
(mag) Time Alt. Az. Time Alt. Az. Time Alt. Az.
16 Oct 6.8 05:29:38 10° E 05:30:11 10° E 05:30:43 10° E visible
16 Oct 3.3 18:17:53 10° S 18:22:56 71° W 18:28:01 10° NNW visible
17 Oct 3.2 17:41:21 10° SSE 17:46:14 51° ENE 17:51:09 10° N visible
17 Oct 5.8 19:22:12 10° SW 19:25:31 17° W 19:28:51 10° NW visible
18 Oct 4.4 18:43:46 10° SSW 18:48:30 39° W 18:53:15 10° NNW visible
19 Oct 3.0 18:06:35 10° SSE 18:11:40 90° NW 18:16:46 10° NNW visible
20 Oct 5.5 19:10:16 10° SW 19:14:10 22° W 19:18:05 10° NW visible
21 Oct 6.3 05:41:44 10° ENE 05:44:36 15° E 05:47:27 10° SE visible
21 Oct 3.9 18:32:17 10° S 18:37:12 50° W 18:42:09 10° NNW visible
22 Oct 2.9 17:55:23 10° SSE 18:00:25 71° ENE 18:05:30 10° N visible
22 Oct 6.2 19:38:00 10° WSW 19:39:56 12° W 19:41:51 10° WNW visible
23 Oct 5.1 18:58:30 10° SSW 19:02:49 28° W 19:07:10 10° NW visible
24 Oct 6.6 05:31:34 10° ENE 05:33:12 11° E 05:34:50 10° ESE visible
24 Oct 3.4 18:20:53 10° S 18:25:54 65° W 18:30:58 10° NNW visible
25 Oct 3.1 17:44:15 10° SSE 17:49:11 56° ENE 17:54:10 10° N visible
25 Oct 5.9 19:25:32 10° SW 19:28:32 16° W 19:31:34 10° NW visible
